Time,TemperatureF,DewpointF,PressureIn,WindDirection,WindDirectionDegrees,WindSpeedMPH,WindSpeedGustMPH,Humidity,HourlyPrecipIn,Conditions,Clouds,dailyrainin,SoftwareType,DateUTC
2013-08-15 00:01:00,57.8,52.3,29.93,WNW,295,0.0,1.0,82,0.00,,,0.00,WeatherCatV1.10B1784,2013-08-15 04:01:00,
2013-08-15 00:06:00,57.7,52.2,29.94,WNW,295,0.0,0.0,82,0.00,,,0.00,WeatherCatV1.10B1784,2013-08-15 04:06:00,
2013-08-15 00:11:00,57.6,52.1,29.94,WNW,295,0.0,2.0,82,0.00,,,0.00,WeatherCatV1.10B1784,2013-08-15 04:11:00,
2013-08-15 00:16:00,57.6,52.1,29.94,WNW,295,0.0,0.0,82,0.00,,,0.00,WeatherCatV1.10B1784,2013-08-15 04:16:00,
2013-08-15 00:21:00,57.6,52.1,29.94,WNW,295,0.0,0.0,82,0.00,,,0.00,WeatherCatV1.10B1784,2013-08-15 04:21:00,
2013-08-15 00:26:00,57.5,52.4,29.94,WNW,295,0.0,0.0,83,0.00,,,0.00,WeatherCatV1.10B1784,2013-08-15 04:26:00,
2013-08-15 00:31:00,57.5,52.4,29.94,WNW,295,0.0,0.0,83,0.00,,,0.00,WeatherCatV1.10B1784,2013-08-15 04:31:00,
2013-08-15 00:36:00,57.4,52.3,29.94,WNW,295,0.0,0.0,83,0.00,,,0.00,WeatherCatV1.10B1784,2013-08-15 04:36:00,
2013-08-15 00:41:00,57.3,52.5,29.94,WNW,295,0.0,0.0,84,0.00,,,0.00,WeatherCatV1.10B1784,2013-08-15 04:41:00,
2013-08-15 00:46:00,57.1,52.6,29.94,WNW,295,0.0,0.0,85,0.00,,,0.00,WeatherCatV1.10B1784,2013-08-15 04:46:00,
2013-08-15 00:51:00,56.9,52.8,29.95,WNW,295,0.0,0.0,86,0.00,,,0.00,WeatherCatV1.10B1784,2013-08-15 04:51:00,
2013-08-15 00:56:00,56.8,52.7,29.95,WNW,295,0.0,0.0,86,0.00,,,0.00,WeatherCatV1.10B1784,2013-08-15 04:56:00,
2013-08-15 01:01:00,56.7,52.6,29.95,WNW,295,0.0,0.0,86,0.00,,,0.00,WeatherCatV1.10B1784,2013-08-15 05:01:00,
2013-08-15 01:06:00,56.6,52.5,29.95,WNW,295,0.0,0.0,86,0.00,,,0.00,WeatherCatV1.10B1784,2013-08-15 05:06:00,
2013-08-15 01:11:00,56.5,52.4,29.94,WNW,295,0.0,0.0,86,0.00,,,0.00,WeatherCatV1.10B1784,2013-08-15 05:11:00,
2013-08-15 01:16:00,56.5,52.4,29.94,WNW,295,0.0,1.0,86,0.00,,,0.00,WeatherCatV1.10B1784,2013-08-15 05:16:00,
2013-08-15 01:21:00,56.4,52.3,29.94,WNW,295,0.0,0.0,86,0.00,,,0.00,WeatherCatV1.10B1784,2013-08-15 05:21:00,
2013-08-15 01:26:00,56.3,52.2,29.95,WNW,295,0.0,4.0,86,0.00,,,0.00,WeatherCatV1.10B1784,2013-08-15 05:26:00,
2013-08-15 01:31:00,56.3,52.2,29.94,WNW,295,0.0,3.0,86,0.00,,,0.00,WeatherCatV1.10B1784,2013-08-15 05:31:00,
2013-08-15 01:36:00,56.3,52.2,29.94,WNW,295,0.0,0.0,86,0.00,,,0.00,WeatherCatV1.10B1784,2013-08-15 05:36:00,
2013-08-15 01:41:00,56.3,52.2,29.95,WNW,295,0.0,0.0,86,0.00,,,0.00,WeatherCatV1.10B1784,2013-08-15 05:41:00,
2013-08-15 01:46:00,56.2,52.4,29.94,WNW,295,0.0,0.0,87,0.00,,,0.00,WeatherCatV1.10B1784,2013-08-15 05:46:00,
2013-08-15 01:51:00,56.3,52.2,29.95,WNW,295,1.0,3.0,86,0.00,,,0.00,WeatherCatV1.10B1784,2013-08-15 05:51:00,
2013-08-15 01:56:00,56.6,52.5,29.94,WNW,284,0.0,0.0,86,0.00,,,0.00,WeatherCatV1.10B1784,2013-08-15 05:56:00,
2013-08-15 02:01:00,56.7,52.2,29.95,WNW,283,0.0,0.0,85,0.00,,,0.00,WeatherCatV1.10B1784,2013-08-15 06:01:00,
2013-08-15 02:06:00,56.7,52.2,29.95,WNW,284,0.0,1.0,85,0.00,,,0.00,WeatherCatV1.10B1784,2013-08-15 06:06:00,
2013-08-15 02:11:00,56.8,52.3,29.95,West,281,0.0,1.0,85,0.00,,,0.00,WeatherCatV1.10B1784,2013-08-15 06:11:00,
2013-08-15 02:16:00,56.8,52.3,29.95,West,281,0.0,6.0,85,0.00,,,0.00,WeatherCatV1.10B1784,2013-08-15 06:16:00,
2013-08-15 02:21:00,56.9,52.1,29.95,West,274,0.0,1.0,84,0.00,,,0.00,WeatherCatV1.10B1784,2013-08-15 06:21:00,
2013-08-15 02:26:00,56.8,52.0,29.96,West,273,0.0,5.0,84,0.00,,,0.00,WeatherCatV1.10B1784,2013-08-15 06:26:00,
2013-08-15 02:31:00,56.8,52.0,29.96,West,274,0.0,2.0,84,0.00,,,0.00,WeatherCatV1.10B1784,2013-08-15 06:31:00,
2013-08-15 02:36:00,56.6,51.8,29.96,West,274,0.0,2.0,84,0.00,,,0.00,WeatherCatV1.10B1784,2013-08-15 06:36:00,
2013-08-15 02:41:00,56.4,51.9,29.96,West,274,0.0,1.0,85,0.00,,,0.00,WeatherCatV1.10B1784,2013-08-15 06:41:00,
2013-08-15 02:46:00,56.3,51.8,29.96,West,272,0.0,6.0,85,0.00,,,0.00,WeatherCatV1.10B1784,2013-08-15 06:46:00,
2013-08-15 02:51:00,56.1,51.7,29.96,West,272,0.0,0.0,85,0.00,,,0.00,WeatherCatV1.10B1784,2013-08-15 06:51:00,
2013-08-15 02:56:00,55.9,51.8,29.96,West,272,0.0,0.0,86,0.00,,,0.00,WeatherCatV1.10B1784,2013-08-15 06:56:00,
2013-08-15 03:01:00,55.6,51.5,29.96,West,272,0.0,0.0,86,0.00,,,0.00,WeatherCatV1.10B1784,2013-08-15 07:01:00,
2013-08-15 03:06:00,55.5,51.4,29.96,West,272,0.0,1.0,86,0.00,,,0.00,WeatherCatV1.10B1784,2013-08-15 07:06:00,
2013-08-15 03:11:00,55.4,51.3,29.96,West,272,0.0,1.0,86,0.00,,,0.00,WeatherCatV1.10B1784,2013-08-15 07:11:00,
2013-08-15 03:16:00,55.5,51.1,29.97,West,272,0.0,0.0,85,0.00,,,0.00,WeatherCatV1.10B1784,2013-08-15 07:16:00,
2013-08-15 03:21:00,55.5,51.4,29.97,West,272,0.0,0.0,86,0.00,,,0.00,WeatherCatV1.10B1784,2013-08-15 07:21:00,
2013-08-15 03:26:00,55.5,51.1,29.97,West,272,0.0,1.0,85,0.00,,,0.00,WeatherCatV1.10B1784,2013-08-15 07:26:00,
2013-08-15 03:31:00,55.6,51.2,29.97,West,272,0.0,1.0,85,0.00,,,0.00,WeatherCatV1.10B1784,2013-08-15 07:31:00,
2013-08-15 03:36:00,55.6,51.2,29.97,West,272,0.0,0.0,85,0.00,,,0.00,WeatherCatV1.10B1784,2013-08-15 07:36:00,
2013-08-15 03:41:00,55.5,51.1,29.97,West,272,0.0,0.0,85,0.00,,,0.00,WeatherCatV1.10B1784,2013-08-15 07:41:00,
2013-08-15 03:46:00,55.4,50.6,29.97,West,272,0.0,2.0,84,0.00,,,0.00,WeatherCatV1.10B1784,2013-08-15 07:46:00,
2013-08-15 03:51:00,55.4,50.6,29.97,West,272,0.0,1.0,84,0.00,,,0.00,WeatherCatV1.10B1784,2013-08-15 07:51:00,
2013-08-15 03:56:00,55.4,50.6,29.97,West,272,0.0,0.0,84,0.00,,,0.00,WeatherCatV1.10B1784,2013-08-15 07:56:00,
2013-08-15 04:01:00,55.3,50.5,29.98,West,272,0.0,1.0,84,0.00,,,0.00,WeatherCatV1.10B1784,2013-08-15 08:01:00,
2013-08-15 04:06:00,55.3,50.5,29.98,West,272,0.0,2.0,84,0.00,,,0.00,WeatherCatV1.10B1784,2013-08-15 08:06:00,
2013-08-15 04:11:00,55.3,50.5,29.98,West,272,0.0,3.0,84,0.00,,,0.00,WeatherCatV1.10B1784,2013-08-15 08:11:00,
2013-08-15 04:16:00,55.2,50.4,29.98,West,272,0.0,0.0,84,0.00,,,0.00,WeatherCatV1.10B1784,2013-08-15 08:16:00,
2013-08-15 04:21:00,55.2,50.4,29.98,West,272,1.0,1.0,84,0.00,,,0.00,WeatherCatV1.10B1784,2013-08-15 08:21:00,
2013-08-15 04:26:00,55.1,50.4,29.98,West,272,0.0,2.0,84,0.00,,,0.00,WeatherCatV1.10B1784,2013-08-15 08:26:00,
2013-08-15 04:31:00,55.2,50.1,29.98,West,272,0.0,1.0,83,0.00,,,0.00,WeatherCatV1.10B1784,2013-08-15 08:31:00,
2013-08-15 04:36:00,55.3,50.2,29.98,West,272,0.0,0.0,83,0.00,,,0.00,WeatherCatV1.10B1784,2013-08-15 08:36:00,
2013-08-15 04:41:00,55.2,50.1,29.98,West,272,0.0,0.0,83,0.00,,,0.00,WeatherCatV1.10B1784,2013-08-15 08:41:00,
2013-08-15 04:46:00,55.2,50.4,29.98,West,272,0.0,0.0,84,0.00,,,0.00,WeatherCatV1.10B1784,2013-08-15 08:46:00,
2013-08-15 04:51:00,55.1,50.4,29.98,West,272,0.0,0.0,84,0.00,,,0.00,WeatherCatV1.10B1784,2013-08-15 08:51:00,
2013-08-15 04:56:00,55.0,50.3,29.99,West,272,0.0,2.0,84,0.00,,,0.00,WeatherCatV1.10B1784,2013-08-15 08:56:00,
2013-08-15 05:01:00,55.0,50.3,29.99,West,272,0.0,1.0,84,0.00,,,0.00,WeatherCatV1.10B1784,2013-08-15 09:01:00,
2013-08-15 05:06:00,54.9,50.2,29.99,West,272,0.0,1.0,84,0.00,,,0.00,WeatherCatV1.10B1784,2013-08-15 09:06:00,
2013-08-15 05:11:00,55.0,50.3,30.00,West,272,0.0,2.0,84,0.00,,,0.00,WeatherCatV1.10B1784,2013-08-15 09:11:00,
2013-08-15 05:16:00,55.0,50.3,30.00,West,272,0.0,0.0,84,0.00,,,0.00,WeatherCatV1.10B1784,2013-08-15 09:16:00,
2013-08-15 05:21:00,54.9,50.2,30.00,West,272,0.0,0.0,84,0.00,,,0.00,WeatherCatV1.10B1784,2013-08-15 09:21:00,
2013-08-15 05:26:00,54.8,50.1,30.00,West,272,0.0,0.0,84,0.00,,,0.00,WeatherCatV1.10B1784,2013-08-15 09:26:00,
2013-08-15 05:31:00,54.9,50.2,30.00,West,272,0.0,0.0,84,0.00,,,0.00,WeatherCatV1.10B1784,2013-08-15 09:31:00,
2013-08-15 05:36:00,54.9,50.2,30.00,West,272,0.0,1.0,84,0.00,,,0.00,WeatherCatV1.10B1784,2013-08-15 09:36:00,
2013-08-15 05:41:00,54.9,50.2,30.00,West,272,0.0,1.0,84,0.00,,,0.00,WeatherCatV1.10B1784,2013-08-15 09:41:00,
2013-08-15 05:46:00,54.9,50.2,30.00,West,272,0.0,0.0,84,0.00,,,0.00,WeatherCatV1.10B1784,2013-08-15 09:46:00,
2013-08-15 05:51:00,55.0,50.3,30.01,West,272,0.0,1.0,84,0.00,,,0.00,WeatherCatV1.10B1784,2013-08-15 09:51:00,
2013-08-15 05:56:00,55.0,50.3,30.01,West,272,0.0,1.0,84,0.00,,,0.00,WeatherCatV1.10B1784,2013-08-15 09:56:00,
2013-08-15 06:01:00,55.0,50.3,30.01,West,272,0.0,0.0,84,0.00,,,0.00,WeatherCatV1.10B1784,2013-08-15 10:01:00,
2013-08-15 06:06:00,55.1,50.4,30.01,West,272,3.0,3.0,84,0.00,,,0.00,WeatherCatV1.10B1784,2013-08-15 10:06:00,
2013-08-15 06:11:00,55.1,50.4,30.02,West,272,1.0,2.0,84,0.00,,,0.00,WeatherCatV1.10B1784,2013-08-15 10:11:00,
2013-08-15 06:16:00,55.2,50.4,30.02,West,272,0.0,1.0,84,0.00,,,0.00,WeatherCatV1.10B1784,2013-08-15 10:16:00,
2013-08-15 06:21:00,55.2,50.4,30.02,West,272,0.0,0.0,84,0.00,,,0.00,WeatherCatV1.10B1784,2013-08-15 10:21:00,
2013-08-15 06:26:00,55.3,50.5,30.02,West,272,0.0,4.0,84,0.00,,,0.00,WeatherCatV1.10B1784,2013-08-15 10:26:00,
2013-08-15 06:31:00,55.4,50.3,30.02,West,272,0.0,0.0,83,0.00,,,0.00,WeatherCatV1.10B1784,2013-08-15 10:31:00,
2013-08-15 06:36:00,55.5,50.4,30.02,West,272,0.0,1.0,83,0.00,,,0.00,WeatherCatV1.10B1784,2013-08-15 10:36:00,
2013-08-15 06:41:00,55.7,50.6,30.02,West,272,0.0,1.0,83,0.00,,,0.00,WeatherCatV1.10B1784,2013-08-15 10:41:00,
2013-08-15 06:46:00,55.9,50.8,30.02,West,272,0.0,1.0,83,0.00,,,0.00,WeatherCatV1.10B1784,2013-08-15 10:46:00,
2013-08-15 06:51:00,56.1,51.0,30.03,West,272,0.0,0.0,83,0.00,,,0.00,WeatherCatV1.10B1784,2013-08-15 10:51:00,
2013-08-15 06:56:00,56.3,51.2,30.03,West,272,0.0,0.0,83,0.00,,,0.00,WeatherCatV1.10B1784,2013-08-15 10:56:00,
2013-08-15 07:01:00,56.4,51.0,30.03,West,272,0.0,0.0,82,0.00,,,0.00,WeatherCatV1.10B1784,2013-08-15 11:01:00,
2013-08-15 07:06:00,56.7,51.3,30.03,West,272,0.0,4.0,82,0.00,,,0.00,WeatherCatV1.10B1784,2013-08-15 11:06:00,
2013-08-15 07:11:00,57.1,51.3,30.03,West,272,0.0,2.0,81,0.00,,,0.00,WeatherCatV1.10B1784,2013-08-15 11:11:00,
2013-08-15 07:16:00,57.5,51.7,30.03,West,272,1.0,3.0,81,0.00,,,0.00,WeatherCatV1.10B1784,2013-08-15 11:16:00,
2013-08-15 07:21:00,57.9,51.8,30.03,West,273,0.0,6.0,80,0.00,,,0.00,WeatherCatV1.10B1784,2013-08-15 11:21:00,
2013-08-15 07:26:00,58.3,52.5,30.03,West,273,0.0,2.0,81,0.00,,,0.00,WeatherCatV1.10B1784,2013-08-15 11:26:00,
2013-08-15 07:31:00,58.6,52.4,30.03,West,273,1.0,4.0,80,0.00,,,0.00,WeatherCatV1.10B1784,2013-08-15 11:31:00,
2013-08-15 07:36:00,58.9,52.4,30.03,West,273,0.0,5.0,79,0.00,,,0.00,WeatherCatV1.10B1784,2013-08-15 11:36:00,
2013-08-15 07:41:00,59.3,53.1,30.03,West,273,0.0,3.0,80,0.00,,,0.00,WeatherCatV1.10B1784,2013-08-15 11:41:00,
2013-08-15 07:46:00,59.7,52.5,30.03,West,273,0.0,2.0,77,0.00,,,0.00,WeatherCatV1.10B1784,2013-08-15 11:46:00,
2013-08-15 07:51:00,59.9,52.7,30.03,West,273,0.0,0.0,77,0.00,,,0.00,WeatherCatV1.10B1784,2013-08-15 11:51:00,
2013-08-15 07:56:00,60.5,53.6,30.04,West,271,1.0,5.0,78,0.00,,,0.00,WeatherCatV1.10B1784,2013-08-15 11:56:00,
2013-08-15 07:59:00,60.6,52.6,30.03,West,267,0.0,6.0,75,0.00,,,0.00,WeatherCatV1.10B1784,2013-08-15 11:59:00,
2013-08-15 08:04:00,60.9,52.9,30.03,West,267,2.0,3.0,75,0.00,,,0.00,WeatherCatV1.10B1784,2013-08-15 12:04:00,
2013-08-15 08:09:00,61.3,53.3,30.03,West,267,0.0,1.0,75,0.00,,,0.00,WeatherCatV1.10B1784,2013-08-15 12:09:00,
2013-08-15 08:14:00,61.6,53.6,30.03,West,267,0.0,2.0,75,0.00,,,0.00,WeatherCatV1.10B1784,2013-08-15 12:14:00,
2013-08-15 08:19:00,62.0,53.6,30.04,West,267,2.0,2.0,74,0.00,,,0.00,WeatherCatV1.10B1784,2013-08-15 12:19:00,
2013-08-15 08:24:00,62.3,53.9,30.03,WSW,252,2.0,2.0,74,0.00,,,0.00,WeatherCatV1.10B1784,2013-08-15 12:24:00,
2013-08-15 08:29:00,62.6,53.4,30.04,WSW,240,0.0,5.0,72,0.00,,,0.00,WeatherCatV1.10B1784,2013-08-15 12:29:00,
2013-08-15 08:34:00,62.8,52.9,30.04,WSW,245,0.0,5.0,70,0.00,,,0.00,WeatherCatV1.10B1784,2013-08-15 12:34:00,
2013-08-15 08:39:00,63.2,53.2,30.04,WSW,257,0.0,5.0,70,0.00,,,0.00,WeatherCatV1.10B1784,2013-08-15 12:39:00,
2013-08-15 08:44:00,63.4,53.4,30.04,WSW,257,0.0,6.0,70,0.00,,,0.00,WeatherCatV1.10B1784,2013-08-15 12:44:00,
2013-08-15 08:49:00,63.7,52.9,30.04,WSW,257,2.0,4.0,68,0.00,,,0.00,WeatherCatV1.10B1784,2013-08-15 12:49:00,
2013-08-15 08:54:00,63.8,52.2,30.04,WSW,257,0.0,5.0,66,0.00,,,0.00,WeatherCatV1.10B1784,2013-08-15 12:54:00,
2013-08-15 08:59:00,63.9,52.7,30.04,WSW,257,0.0,4.0,67,0.00,,,0.00,WeatherCatV1.10B1784,2013-08-15 12:59:00,
2013-08-15 09:04:00,64.1,53.7,30.04,WSW,257,0.0,0.0,69,0.00,,,0.00,WeatherCatV1.10B1784,2013-08-15 13:04:00,
2013-08-15 09:09:00,64.4,53.6,30.04,West,262,0.0,3.0,68,0.00,,,0.00,WeatherCatV1.10B1784,2013-08-15 13:09:00,
2013-08-15 09:14:00,64.8,53.2,30.04,West,267,0.0,2.0,66,0.00,,,0.00,WeatherCatV1.10B1784,2013-08-15 13:14:00,
2013-08-15 09:19:00,64.8,52.3,30.04,SW,229,0.0,7.0,64,0.00,,,0.00,WeatherCatV1.10B1784,2013-08-15 13:19:00,
2013-08-15 09:24:00,64.3,53.5,30.04,SW,230,3.0,4.0,68,0.00,,,0.00,WeatherCatV1.10B1784,2013-08-15 13:24:00,
2013-08-15 09:29:00,64.8,54.4,30.05,WSW,242,0.0,5.0,69,0.00,,,0.00,WeatherCatV1.10B1784,2013-08-15 13:29:00,
2013-08-15 09:34:00,65.2,53.5,30.04,WSW,242,0.0,0.0,66,0.00,,,0.00,WeatherCatV1.10B1784,2013-08-15 13:34:00,
2013-08-15 09:39:00,65.8,54.1,30.04,WSW,242,1.0,1.0,66,0.00,,,0.00,WeatherCatV1.10B1784,2013-08-15 13:39:00,
2013-08-15 09:44:00,66.4,53.8,30.04,WSW,257,4.0,7.0,64,0.00,,,0.00,WeatherCatV1.10B1784,2013-08-15 13:44:00,
2013-08-15 09:49:00,66.7,53.7,30.05,WSW,257,3.0,6.0,63,0.00,,,0.00,WeatherCatV1.10B1784,2013-08-15 13:49:00,
2013-08-15 09:54:00,66.8,53.8,30.04,West,262,0.0,5.0,63,0.00,,,0.00,WeatherCatV1.10B1784,2013-08-15 13:54:00,
2013-08-15 09:59:00,67.1,54.1,30.04,West,262,2.0,2.0,63,0.00,,,0.00,WeatherCatV1.10B1784,2013-08-15 13:59:00,
2013-08-15 10:04:00,67.2,54.2,30.05,WNW,286,0.0,4.0,63,0.00,,,0.00,WeatherCatV1.10B1784,2013-08-15 14:04:00,
2013-08-15 10:09:00,67.4,54.8,30.05,West,279,0.0,4.0,64,0.00,,,0.00,WeatherCatV1.10B1784,2013-08-15 14:09:00,
2013-08-15 10:14:00,67.7,55.1,30.05,West,279,0.0,1.0,64,0.00,,,0.00,WeatherCatV1.10B1784,2013-08-15 14:14:00,
2013-08-15 10:19:00,68.0,53.1,30.04,West,267,0.0,6.0,59,0.00,,,0.00,WeatherCatV1.10B1784,2013-08-15 14:19:00,
2013-08-15 10:24:00,68.1,52.8,30.04,West,267,1.0,2.0,58,0.00,,,0.00,WeatherCatV1.10B1784,2013-08-15 14:24:00,
2013-08-15 10:29:00,68.3,53.4,30.04,West,267,0.0,1.0,59,0.00,,,0.00,WeatherCatV1.10B1784,2013-08-15 14:29:00,
2013-08-15 10:34:00,68.7,53.3,30.05,West,267,3.0,3.0,58,0.00,,,0.00,WeatherCatV1.10B1784,2013-08-15 14:34:00,
2013-08-15 10:39:00,68.8,53.4,30.05,West,272,0.0,4.0,58,0.00,,,0.00,WeatherCatV1.10B1784,2013-08-15 14:39:00,
2013-08-15 10:44:00,69.1,53.7,30.05,West,272,0.0,2.0,58,0.00,,,0.00,WeatherCatV1.10B1784,2013-08-15 14:44:00,
2013-08-15 10:49:00,69.5,54.5,30.05,West,272,0.0,2.0,59,0.00,,,0.00,WeatherCatV1.10B1784,2013-08-15 14:49:00,
2013-08-15 10:54:00,69.8,54.8,30.04,West,271,0.0,2.0,59,0.00,,,0.00,WeatherCatV1.10B1784,2013-08-15 14:54:00,
2013-08-15 10:59:00,69.5,53.6,30.04,NW,324,0.0,4.0,57,0.00,,,0.00,WeatherCatV1.10B1784,2013-08-15 14:59:00,
2013-08-15 11:04:00,69.4,52.5,30.04,NW,321,0.0,5.0,55,0.00,,,0.00,WeatherCatV1.10B1784,2013-08-15 15:04:00,
2013-08-15 11:09:00,69.5,51.1,30.04,WNW,303,3.0,6.0,52,0.00,,,0.00,WeatherCatV1.10B1784,2013-08-15 15:09:00,
2013-08-15 11:14:00,69.6,52.7,30.04,SW,222,0.0,5.0,55,0.00,,,0.00,WeatherCatV1.10B1784,2013-08-15 15:14:00,
2013-08-15 11:19:00,70.2,52.8,30.04,WNW,300,5.0,5.0,54,0.00,,,0.00,WeatherCatV1.10B1784,2013-08-15 15:19:00,
2013-08-15 11:24:00,70.2,53.3,30.05,WSW,240,0.0,7.0,55,0.00,,,0.00,WeatherCatV1.10B1784,2013-08-15 15:24:00,
2013-08-15 11:29:00,70.3,51.8,30.04,WSW,257,0.0,6.0,52,0.00,,,0.00,WeatherCatV1.10B1784,2013-08-15 15:29:00,
2013-08-15 11:34:00,70.1,52.7,30.04,WSW,253,5.0,5.0,54,0.00,,,0.00,WeatherCatV1.10B1784,2013-08-15 15:34:00,
2013-08-15 11:39:00,70.1,51.6,30.04,SW,229,4.0,6.0,52,0.00,,,0.00,WeatherCatV1.10B1784,2013-08-15 15:39:00,
2013-08-15 11:44:00,70.2,51.7,30.04,WSW,252,4.0,4.0,52,0.00,,,0.00,WeatherCatV1.10B1784,2013-08-15 15:44:00,
2013-08-15 11:49:00,70.6,53.1,30.04,WNW,300,1.0,8.0,54,0.00,,,0.00,WeatherCatV1.10B1784,2013-08-15 15:49:00,
2013-08-15 11:54:00,70.7,53.2,30.04,WSW,257,3.0,8.0,54,0.00,,,0.00,WeatherCatV1.10B1784,2013-08-15 15:54:00,
2013-08-15 11:59:00,71.1,54.1,30.04,WNW,285,0.0,1.0,55,0.00,,,0.00,WeatherCatV1.10B1784,2013-08-15 15:59:00,
2013-08-15 12:04:00,70.8,53.8,30.04,WSW,250,4.0,4.0,55,0.00,,,0.00,WeatherCatV1.10B1784,2013-08-15 16:04:00,
2013-08-15 12:09:00,70.5,52.5,30.03,West,262,0.0,3.0,53,0.00,,,0.00,WeatherCatV1.10B1784,2013-08-15 16:09:00,
2013-08-15 12:14:00,70.6,52.6,30.03,WSW,257,6.0,6.0,53,0.00,,,0.00,WeatherCatV1.10B1784,2013-08-15 16:14:00,
2013-08-15 12:19:00,70.7,53.7,30.03,SW,224,0.0,7.0,55,0.00,,,0.00,WeatherCatV1.10B1784,2013-08-15 16:19:00,
2013-08-15 12:24:00,71.2,53.2,30.03,WSW,241,2.0,2.0,53,0.00,,,0.00,WeatherCatV1.10B1784,2013-08-15 16:24:00,
2013-08-15 12:29:00,71.5,53.5,30.03,WNW,300,1.0,2.0,53,0.00,,,0.00,WeatherCatV1.10B1784,2013-08-15 16:29:00,
2013-08-15 12:34:00,71.2,52.1,30.02,SW,220,0.0,10.0,51,0.00,,,0.00,WeatherCatV1.10B1784,2013-08-15 16:34:00,
2013-08-15 12:39:00,71.3,53.8,30.02,NW,325,0.0,7.0,54,0.00,,,0.00,WeatherCatV1.10B1784,2013-08-15 16:39:00,
2013-08-15 12:44:00,71.5,52.9,30.02,WSW,257,3.0,4.0,52,0.00,,,0.00,WeatherCatV1.10B1784,2013-08-15 16:44:00,
2013-08-15 12:49:00,71.3,53.3,30.02,SW,233,0.0,6.0,53,0.00,,,0.00,WeatherCatV1.10B1784,2013-08-15 16:49:00,
2013-08-15 12:54:00,71.6,53.0,30.02,WSW,257,0.0,8.0,52,0.00,,,0.00,WeatherCatV1.10B1784,2013-08-15 16:54:00,
2013-08-15 12:59:00,71.7,52.1,30.02,SW,223,3.0,9.0,50,0.00,,,0.00,WeatherCatV1.10B1784,2013-08-15 16:59:00,
2013-08-15 13:04:00,71.3,51.7,30.02,WSW,241,7.0,7.0,50,0.00,,,0.00,WeatherCatV1.10B1784,2013-08-15 17:04:00,
2013-08-15 13:09:00,71.0,50.9,30.02,SW,226,1.0,9.0,49,0.00,,,0.00,WeatherCatV1.10B1784,2013-08-15 17:09:00,
2013-08-15 13:14:00,71.5,54.5,30.01,WNW,282,0.0,7.0,55,0.00,,,0.00,WeatherCatV1.10B1784,2013-08-15 17:14:00,
2013-08-15 13:19:00,71.8,52.1,30.01,WNW,295,2.0,5.0,50,0.00,,,0.00,WeatherCatV1.10B1784,2013-08-15 17:19:00,
2013-08-15 13:24:00,72.0,51.8,30.02,WNW,294,0.0,3.0,49,0.00,,,0.00,WeatherCatV1.10B1784,2013-08-15 17:24:00,
2013-08-15 13:29:00,72.5,51.7,30.01,WNW,293,2.0,3.0,48,0.00,,,0.00,WeatherCatV1.10B1784,2013-08-15 17:29:00,
2013-08-15 13:34:00,73.0,54.8,30.01,NNW,342,0.0,7.0,53,0.00,,,0.00,WeatherCatV1.10B1784,2013-08-15 17:34:00,
2013-08-15 13:39:00,73.0,54.3,30.01,West,274,0.0,3.0,52,0.00,,,0.00,WeatherCatV1.10B1784,2013-08-15 17:39:00,
2013-08-15 13:44:00,73.1,54.4,30.02,West,273,6.0,8.0,52,0.00,,,0.00,WeatherCatV1.10B1784,2013-08-15 17:44:00,
2013-08-15 13:49:00,72.7,54.0,30.01,SW,227,2.0,3.0,52,0.00,,,0.00,WeatherCatV1.10B1784,2013-08-15 17:49:00,
2013-08-15 13:54:00,73.0,55.9,30.01,SW,233,1.0,5.0,55,0.00,,,0.00,WeatherCatV1.10B1784,2013-08-15 17:54:00,
2013-08-15 13:59:00,72.9,54.8,30.01,West,273,1.0,4.0,53,0.00,,,0.00,WeatherCatV1.10B1784,2013-08-15 17:59:00,
2013-08-15 14:04:00,71.9,53.3,30.01,NW,315,0.0,2.0,52,0.00,,,0.00,WeatherCatV1.10B1784,2013-08-15 18:04:00,
2013-08-15 14:09:00,71.0,54.5,30.01,NW,309,0.0,2.0,56,0.00,,,0.00,WeatherCatV1.10B1784,2013-08-15 18:09:00,
2013-08-15 14:14:00,71.4,55.8,30.01,WSW,248,0.0,6.0,58,0.00,,,0.00,WeatherCatV1.10B1784,2013-08-15 18:14:00,
2013-08-15 14:19:00,71.9,55.8,30.01,SW,221,5.0,5.0,57,0.00,,,0.00,WeatherCatV1.10B1784,2013-08-15 18:19:00,
2013-08-15 14:24:00,72.3,53.1,30.01,WSW,244,3.0,7.0,51,0.00,,,0.00,WeatherCatV1.10B1784,2013-08-15 18:24:00,
2013-08-15 14:29:00,72.4,55.3,30.01,West,271,0.0,3.0,55,0.00,,,0.00,WeatherCatV1.10B1784,2013-08-15 18:29:00,
2013-08-15 14:34:00,72.9,56.8,30.01,NNE,28,0.0,2.0,57,0.00,,,0.00,WeatherCatV1.10B1784,2013-08-15 18:34:00,
2013-08-15 14:39:00,73.4,54.7,30.00,NNE,28,0.0,0.0,52,0.00,,,0.00,WeatherCatV1.10B1784,2013-08-15 18:39:00,
2013-08-15 14:44:00,72.9,54.2,30.00,NNW,336,1.0,3.0,52,0.00,,,0.00,WeatherCatV1.10B1784,2013-08-15 18:44:00,
2013-08-15 14:49:00,72.1,53.5,30.00,SSW,207,0.0,2.0,52,0.00,,,0.00,WeatherCatV1.10B1784,2013-08-15 18:49:00,
2013-08-15 14:54:00,72.0,54.4,30.00,West,281,0.0,7.0,54,0.00,,,0.00,WeatherCatV1.10B1784,2013-08-15 18:54:00,
2013-08-15 14:59:00,72.0,54.9,30.00,West,277,0.0,4.0,55,0.00,,,0.00,WeatherCatV1.10B1784,2013-08-15 18:59:00,
2013-08-15 15:04:00,72.1,54.5,30.00,NW,319,5.0,7.0,54,0.00,,,0.00,WeatherCatV1.10B1784,2013-08-15 19:04:00,
2013-08-15 15:09:00,72.6,55.5,30.00,WNW,293,0.0,1.0,55,0.00,,,0.00,WeatherCatV1.10B1784,2013-08-15 19:09:00,
2013-08-15 15:14:00,72.1,54.0,30.00,SW,232,4.0,7.0,53,0.00,,,0.00,WeatherCatV1.10B1784,2013-08-15 19:14:00,
2013-08-15 15:19:00,72.1,54.0,29.99,SW,227,1.0,3.0,53,0.00,,,0.00,WeatherCatV1.10B1784,2013-08-15 19:19:00,
2013-08-15 15:24:00,72.5,54.4,29.99,SW,226,0.0,5.0,53,0.00,,,0.00,WeatherCatV1.10B1784,2013-08-15 19:24:00,
2013-08-15 15:29:00,73.3,54.1,29.99,SW,227,0.0,7.0,51,0.00,,,0.00,WeatherCatV1.10B1784,2013-08-15 19:29:00,
2013-08-15 15:34:00,74.1,54.8,29.99,SW,232,0.0,8.0,51,0.00,,,0.00,WeatherCatV1.10B1784,2013-08-15 19:34:00,
2013-08-15 15:39:00,74.3,53.9,29.99,SW,232,8.0,9.0,49,0.00,,,0.00,WeatherCatV1.10B1784,2013-08-15 19:39:00,
2013-08-15 15:44:00,73.8,54.0,29.99,SW,229,5.0,7.0,50,0.00,,,0.00,WeatherCatV1.10B1784,2013-08-15 19:44:00,
2013-08-15 15:49:00,74.0,55.2,29.99,WSW,251,0.0,4.0,52,0.00,,,0.00,WeatherCatV1.10B1784,2013-08-15 19:49:00,
2013-08-15 15:54:00,73.6,54.3,29.99,WNW,295,0.0,1.0,51,0.00,,,0.00,WeatherCatV1.10B1784,2013-08-15 19:54:00,
2013-08-15 15:59:00,74.5,55.7,29.99,SW,223,7.0,7.0,52,0.00,,,0.00,WeatherCatV1.10B1784,2013-08-15 19:59:00,
2013-08-15 16:04:00,74.8,57.5,29.99,WSW,249,0.0,1.0,55,0.00,,,0.00,WeatherCatV1.10B1784,2013-08-15 20:04:00,
2013-08-15 16:09:00,73.9,55.1,29.99,West,267,0.0,1.0,52,0.00,,,0.00,WeatherCatV1.10B1784,2013-08-15 20:09:00,
2013-08-15 16:14:00,72.8,54.1,29.99,WNW,294,0.0,1.0,52,0.00,,,0.00,WeatherCatV1.10B1784,2013-08-15 20:14:00,
2013-08-15 16:19:00,72.4,53.8,29.99,NNE,26,0.0,6.0,52,0.00,,,0.00,WeatherCatV1.10B1784,2013-08-15 20:19:00,
2013-08-15 16:24:00,73.5,55.3,29.99,WSW,241,0.0,1.0,53,0.00,,,0.00,WeatherCatV1.10B1784,2013-08-15 20:24:00,
2013-08-15 16:29:00,74.0,53.6,29.99,WSW,241,0.0,6.0,49,0.00,,,0.00,WeatherCatV1.10B1784,2013-08-15 20:29:00,
2013-08-15 16:34:00,74.4,55.1,29.99,WSW,242,1.0,6.0,51,0.00,,,0.00,WeatherCatV1.10B1784,2013-08-15 20:34:00,
2013-08-15 16:39:00,74.7,53.1,29.99,NNW,344,2.0,4.0,47,0.00,,,0.00,WeatherCatV1.10B1784,2013-08-15 20:39:00,
2013-08-15 16:44:00,74.8,53.2,29.99,WSW,257,0.0,2.0,47,0.00,,,0.00,WeatherCatV1.10B1784,2013-08-15 20:44:00,
2013-08-15 16:49:00,75.2,54.1,29.99,SW,226,1.0,6.0,48,0.00,,,0.00,WeatherCatV1.10B1784,2013-08-15 20:49:00,
2013-08-15 16:54:00,75.8,54.1,29.99,SW,225,0.0,5.0,47,0.00,,,0.00,WeatherCatV1.10B1784,2013-08-15 20:54:00,
2013-08-15 16:59:00,75.3,55.4,29.99,SW,218,0.0,0.0,50,0.00,,,0.00,WeatherCatV1.10B1784,2013-08-15 20:59:00,
2013-08-15 17:04:00,74.5,54.6,29.99,West,262,4.0,7.0,50,0.00,,,0.00,WeatherCatV1.10B1784,2013-08-15 21:04:00,
2013-08-15 17:09:00,74.2,54.3,29.99,West,267,1.0,2.0,50,0.00,,,0.00,WeatherCatV1.10B1784,2013-08-15 21:09:00,
2013-08-15 17:14:00,74.2,53.2,29.99,WSW,257,0.0,5.0,48,0.00,,,0.00,WeatherCatV1.10B1784,2013-08-15 21:14:00,
2013-08-15 17:19:00,74.2,53.8,29.99,WNW,286,4.0,4.0,49,0.00,,,0.00,WeatherCatV1.10B1784,2013-08-15 21:19:00,
2013-08-15 17:24:00,74.5,52.9,29.99,West,279,5.0,6.0,47,0.00,,,0.00,WeatherCatV1.10B1784,2013-08-15 21:24:00,
2013-08-15 17:29:00,74.0,52.5,29.99,WSW,249,0.0,4.0,47,0.00,,,0.00,WeatherCatV1.10B1784,2013-08-15 21:29:00,
2013-08-15 17:34:00,74.0,53.0,29.99,SW,234,0.0,5.0,48,0.00,,,0.00,WeatherCatV1.10B1784,2013-08-15 21:34:00,
2013-08-15 17:40:00,73.6,53.8,29.99,SW,233,0.0,2.0,50,0.00,,,0.00,WeatherCatV1.10B1784,2013-08-15 21:40:00,
2013-08-15 17:45:00,73.5,53.7,29.99,WSW,245,0.0,4.0,50,0.00,,,0.00,WeatherCatV1.10B1784,2013-08-15 21:45:00,
2013-08-15 17:50:00,74.0,54.2,29.99,WSW,251,0.0,1.0,50,0.00,,,0.00,WeatherCatV1.10B1784,2013-08-15 21:50:00,
2013-08-15 17:55:00,74.2,54.3,29.99,SW,235,5.0,5.0,50,0.00,,,0.00,WeatherCatV1.10B1784,2013-08-15 21:55:00,
2013-08-15 18:00:00,73.4,54.2,29.99,SW,230,0.0,1.0,51,0.00,,,0.00,WeatherCatV1.10B1784,2013-08-15 22:00:00,
2013-08-15 18:05:00,73.3,54.6,29.99,SW,230,0.0,0.0,52,0.00,,,0.00,WeatherCatV1.10B1784,2013-08-15 22:05:00,
2013-08-15 18:10:00,73.4,55.7,29.99,SW,230,0.0,0.0,54,0.00,,,0.00,WeatherCatV1.10B1784,2013-08-15 22:10:00,
2013-08-15 18:15:00,73.5,54.8,29.99,SW,228,0.0,3.0,52,0.00,,,0.00,WeatherCatV1.10B1784,2013-08-15 22:15:00,
2013-08-15 18:20:00,72.6,54.0,30.00,SW,232,0.0,3.0,52,0.00,,,0.00,WeatherCatV1.10B1784,2013-08-15 22:20:00,
2013-08-15 18:25:00,72.0,55.4,30.00,SW,232,0.0,0.0,56,0.00,,,0.00,WeatherCatV1.10B1784,2013-08-15 22:25:00,
2013-08-15 18:30:00,71.4,54.9,30.00,SW,232,0.0,4.0,56,0.00,,,0.00,WeatherCatV1.10B1784,2013-08-15 22:30:00,
2013-08-15 18:35:00,71.0,55.0,30.00,SW,232,0.0,1.0,57,0.00,,,0.00,WeatherCatV1.10B1784,2013-08-15 22:35:00,
2013-08-15 18:40:00,70.9,54.9,30.00,SW,232,0.0,2.0,57,0.00,,,0.00,WeatherCatV1.10B1784,2013-08-15 22:40:00,
2013-08-15 18:45:00,70.7,54.7,30.00,SW,233,0.0,0.0,57,0.00,,,0.00,WeatherCatV1.10B1784,2013-08-15 22:45:00,
2013-08-15 18:50:00,70.4,55.8,30.00,SW,233,0.0,0.0,60,0.00,,,0.00,WeatherCatV1.10B1784,2013-08-15 22:50:00,
2013-08-15 18:55:00,70.0,55.0,30.00,SW,233,0.0,0.0,59,0.00,,,0.00,WeatherCatV1.10B1784,2013-08-15 22:55:00,
2013-08-15 19:00:00,69.8,55.7,30.00,SW,233,0.0,0.0,61,0.00,,,0.00,WeatherCatV1.10B1784,2013-08-15 23:00:00,
2013-08-15 19:05:00,69.4,56.2,30.00,SW,233,0.0,0.0,63,0.00,,,0.00,WeatherCatV1.10B1784,2013-08-15 23:05:00,
2013-08-15 19:10:00,68.8,57.4,30.00,SW,233,0.0,0.0,67,0.00,,,0.00,WeatherCatV1.10B1784,2013-08-15 23:10:00,
2013-08-15 19:15:00,68.4,58.2,30.01,SW,233,0.0,0.0,70,0.00,,,0.00,WeatherCatV1.10B1784,2013-08-15 23:15:00,
2013-08-15 19:20:00,67.9,58.5,30.01,SW,233,0.0,0.0,72,0.00,,,0.00,WeatherCatV1.10B1784,2013-08-15 23:20:00,
2013-08-15 19:25:00,67.0,58.0,30.01,SW,233,0.0,0.0,73,0.00,,,0.00,WeatherCatV1.10B1784,2013-08-15 23:25:00,
2013-08-15 19:30:00,66.1,57.9,30.01,SW,233,0.0,0.0,75,0.00,,,0.00,WeatherCatV1.10B1784,2013-08-15 23:30:00,
2013-08-15 19:35:00,65.6,58.2,30.02,SW,233,0.0,0.0,77,0.00,,,0.00,WeatherCatV1.10B1784,2013-08-15 23:35:00,
2013-08-15 19:40:00,65.1,57.7,30.02,SW,233,0.0,0.0,77,0.00,,,0.00,WeatherCatV1.10B1784,2013-08-15 23:40:00,
2013-08-15 19:45:00,64.6,57.6,30.02,SW,233,0.0,0.0,78,0.00,,,0.00,WeatherCatV1.10B1784,2013-08-15 23:45:00,
2013-08-15 19:50:00,64.1,57.1,30.02,SW,233,0.0,0.0,78,0.00,,,0.00,WeatherCatV1.10B1784,2013-08-15 23:50:00,
2013-08-15 19:55:00,63.7,56.3,30.02,SW,233,0.0,0.0,77,0.00,,,0.00,WeatherCatV1.10B1784,2013-08-15 23:55:00,
2013-08-15 20:00:00,63.6,56.6,30.02,SW,233,0.0,0.0,78,0.00,,,0.00,WeatherCatV1.10B1784,2013-08-16 00:00:00,
2013-08-15 20:05:00,63.4,56.8,30.03,SW,233,0.0,0.0,79,0.00,,,0.00,WeatherCatV1.10B1784,2013-08-16 00:05:00,
2013-08-15 20:10:00,63.2,56.2,30.03,SW,233,0.0,0.0,78,0.00,,,0.00,WeatherCatV1.10B1784,2013-08-16 00:10:00,
2013-08-15 20:15:00,63.0,55.7,30.03,SW,233,0.0,0.0,77,0.00,,,0.00,WeatherCatV1.10B1784,2013-08-16 00:15:00,
2013-08-15 20:20:00,62.7,56.1,30.03,SW,233,0.0,0.0,79,0.00,,,0.00,WeatherCatV1.10B1784,2013-08-16 00:20:00,
2013-08-15 20:25:00,62.5,55.9,30.03,SW,233,0.0,0.0,79,0.00,,,0.00,WeatherCatV1.10B1784,2013-08-16 00:25:00,
2013-08-15 20:30:00,62.4,55.8,30.03,SW,233,0.0,0.0,79,0.00,,,0.00,WeatherCatV1.10B1784,2013-08-16 00:30:00,
2013-08-15 20:35:00,62.2,55.9,30.03,SW,233,0.0,0.0,80,0.00,,,0.00,WeatherCatV1.10B1784,2013-08-16 00:35:00,
2013-08-15 20:40:00,62.0,56.1,30.04,SW,233,0.0,0.0,81,0.00,,,0.00,WeatherCatV1.10B1784,2013-08-16 00:40:00,
2013-08-15 20:45:00,61.5,55.9,30.04,SW,233,0.0,0.0,82,0.00,,,0.00,WeatherCatV1.10B1784,2013-08-16 00:45:00,
2013-08-15 20:50:00,61.2,55.7,30.04,SW,233,0.0,0.0,82,0.00,,,0.00,WeatherCatV1.10B1784,2013-08-16 00:50:00,
2013-08-15 20:55:00,61.1,55.9,30.04,SW,233,0.0,0.0,83,0.00,,,0.00,WeatherCatV1.10B1784,2013-08-16 00:55:00,
2013-08-15 21:00:00,60.9,55.7,30.04,SW,233,0.0,0.0,83,0.00,,,0.00,WeatherCatV1.10B1784,2013-08-16 01:00:00,
2013-08-15 21:05:00,60.9,55.7,30.05,SW,233,0.0,0.0,83,0.00,,,0.00,WeatherCatV1.10B1784,2013-08-16 01:05:00,
2013-08-15 21:10:00,60.9,55.7,30.05,SW,233,0.0,0.0,83,0.00,,,0.00,WeatherCatV1.10B1784,2013-08-16 01:10:00,
2013-08-15 21:15:00,60.9,55.4,30.05,SW,233,0.0,0.0,82,0.00,,,0.00,WeatherCatV1.10B1784,2013-08-16 01:15:00,
2013-08-15 21:20:00,60.9,55.7,30.05,SW,233,0.0,0.0,83,0.00,,,0.00,WeatherCatV1.10B1784,2013-08-16 01:20:00,
2013-08-15 21:25:00,60.9,55.7,30.05,SW,233,0.0,0.0,83,0.00,,,0.00,WeatherCatV1.10B1784,2013-08-16 01:25:00,
2013-08-15 21:30:00,60.9,55.4,30.06,SW,233,0.0,0.0,82,0.00,,,0.00,WeatherCatV1.10B1784,2013-08-16 01:30:00,
2013-08-15 21:35:00,60.9,55.0,30.06,SW,233,0.0,0.0,81,0.00,,,0.00,WeatherCatV1.10B1784,2013-08-16 01:35:00,
2013-08-15 21:40:00,61.0,55.5,30.06,SW,233,0.0,0.0,82,0.00,,,0.00,WeatherCatV1.10B1784,2013-08-16 01:40:00,
2013-08-15 21:45:00,60.9,55.4,30.06,SW,233,0.0,0.0,82,0.00,,,0.00,WeatherCatV1.10B1784,2013-08-16 01:45:00,
2013-08-15 21:50:00,60.8,55.6,30.06,SW,233,0.0,0.0,83,0.00,,,0.00,WeatherCatV1.10B1784,2013-08-16 01:50:00,
2013-08-15 21:55:00,60.5,55.3,30.07,SW,233,0.0,0.0,83,0.00,,,0.00,WeatherCatV1.10B1784,2013-08-16 01:55:00,
2013-08-15 22:00:00,60.2,55.3,30.07,SW,233,0.0,0.0,84,0.00,,,0.00,WeatherCatV1.10B1784,2013-08-16 02:00:00,
2013-08-15 22:05:00,59.9,55.0,30.07,SW,233,0.0,0.0,84,0.00,,,0.00,WeatherCatV1.10B1784,2013-08-16 02:05:00,
2013-08-15 22:10:00,59.6,55.1,30.07,SW,233,0.0,0.0,85,0.00,,,0.00,WeatherCatV1.10B1784,2013-08-16 02:10:00,
2013-08-15 22:15:00,59.5,54.7,30.07,SW,233,0.0,0.0,84,0.00,,,0.00,WeatherCatV1.10B1784,2013-08-16 02:15:00,
2013-08-15 22:20:00,59.5,54.7,30.07,SW,233,0.0,0.0,84,0.00,,,0.00,WeatherCatV1.10B1784,2013-08-16 02:20:00,
2013-08-15 22:25:00,59.5,54.3,30.07,SW,233,0.0,0.0,83,0.00,,,0.00,WeatherCatV1.10B1784,2013-08-16 02:25:00,
2013-08-15 22:30:00,59.6,54.4,30.07,SW,233,0.0,0.0,83,0.00,,,0.00,WeatherCatV1.10B1784,2013-08-16 02:30:00,
2013-08-15 22:35:00,59.6,53.8,30.07,SW,233,0.0,0.0,81,0.00,,,0.00,WeatherCatV1.10B1784,2013-08-16 02:35:00,
2013-08-15 22:40:00,59.8,54.0,30.07,SW,233,0.0,1.0,81,0.00,,,0.00,WeatherCatV1.10B1784,2013-08-16 02:40:00,
2013-08-15 22:45:00,59.9,53.4,30.07,SW,233,0.0,0.0,79,0.00,,,0.00,WeatherCatV1.10B1784,2013-08-16 02:45:00,
2013-08-15 22:50:00,59.8,53.3,30.07,SW,233,0.0,0.0,79,0.00,,,0.00,WeatherCatV1.10B1784,2013-08-16 02:50:00,
2013-08-15 22:55:00,59.9,53.0,30.07,SW,233,0.0,0.0,78,0.00,,,0.00,WeatherCatV1.10B1784,2013-08-16 02:55:00,
2013-08-15 23:00:00,59.9,52.7,30.07,SW,233,0.0,0.0,77,0.00,,,0.00,WeatherCatV1.10B1784,2013-08-16 03:00:00,
2013-08-15 23:05:00,60.0,53.1,30.07,SW,233,0.0,0.0,78,0.00,,,0.00,WeatherCatV1.10B1784,2013-08-16 03:05:00,
2013-08-15 23:10:00,59.9,53.4,30.06,SW,233,0.0,0.0,79,0.00,,,0.00,WeatherCatV1.10B1784,2013-08-16 03:10:00,
2013-08-15 23:15:00,59.9,52.7,30.07,SW,233,0.0,0.0,77,0.00,,,0.00,WeatherCatV1.10B1784,2013-08-16 03:15:00,
2013-08-15 23:20:00,59.7,52.8,30.06,SW,233,0.0,0.0,78,0.00,,,0.00,WeatherCatV1.10B1784,2013-08-16 03:20:00,
2013-08-15 23:25:00,59.7,52.5,30.06,SW,233,0.0,0.0,77,0.00,,,0.00,WeatherCatV1.10B1784,2013-08-16 03:25:00,
2013-08-15 23:30:00,60.0,52.4,30.07,SW,233,0.0,0.0,76,0.00,,,0.00,WeatherCatV1.10B1784,2013-08-16 03:30:00,
2013-08-15 23:35:00,60.3,52.7,30.07,SW,233,0.0,0.0,76,0.00,,,0.00,WeatherCatV1.10B1784,2013-08-16 03:35:00,
2013-08-15 23:40:00,60.3,52.7,30.07,SW,233,0.0,0.0,76,0.00,,,0.00,WeatherCatV1.10B1784,2013-08-16 03:40:00,
2013-08-15 23:45:00,60.2,52.6,30.07,SW,233,0.0,0.0,76,0.00,,,0.00,WeatherCatV1.10B1784,2013-08-16 03:45:00,
2013-08-15 23:50:00,60.2,53.0,30.07,SW,233,0.0,0.0,77,0.00,,,0.00,WeatherCatV1.10B1784,2013-08-16 03:50:00,
2013-08-15 23:55:00,60.1,53.2,30.07,SW,233,0.0,0.0,78,0.00,,,0.00,WeatherCatV1.10B1784,2013-08-16 03:55:00,